Theta_e
313 308 304 303 302 302 301 301 301 300 300 303 306 307 308 308 307 307 307 305 307 308 311 311 311 313 316 321 320 321 320 318 319 316 316 317 327 334 334 338 341 342 344 345 345 356 360
319 312 308 305 303 303 302 301 300 300 302 306 307 307 308 308 307 307 307 305 307 308 311 310 310 312 314 322 324 320 320 318 317 314 318 317 323 336 338 336 339 340 340 338 338 360 360
319 316 311 307 304 304 302 301 300 300 305 307 307 307 308 308 307 307 307 305 307 307 309 312 314 318 321 320 323 321 324 322 316 316 316 317 319 328 337 337 336 337 333 329 353 358 357
318 316 314 309 305 304 302 300 300 304 307 307 307 307 307 307 307 307 307 305 308 308 309 312 316 321 323 328 325 324 326 327 321 322 316 318 321 327 334 333 329 329 327 326 337 357 357
318 316 315 310 306 302 301 300 303 306 307 307 307 307 307 306 306 306 306 306 309 310 311 311 320 321 327 320 316 316 321 320 328 324 322 319 320 318 324 330 325 325 331 330 327 351 359
319 316 314 309 305 301 301 303 306 306 306 306 306 306 306 306 306 306 305 308 312 313 316 321 322 322 321 324 317 318 317 321 327 325 324 321 319 322 324 326 328 329 329 324 325 326 354
319 315 312 307 302 301 303 306 306 306 306 306 305 305 305 305 305 305 306 310 309 314 319 320 323 323 320 317 317 317 317 321 324 323 323 323 323 325 328 328 326 326 326 326 327 327 326
316 314 308 303 302 303 306 306 307 307 306 306 306 307 307 306 305 306 307 310 313 313 311 314 318 319 320 317 315 316 318 319 325 324 323 327 326 325 327 328 328 327 326 325 324 327 350
314 309 304 303 304 306 307 307 307 307 307 307 307 307 308 306 307 312 311 313 315 314 311 312 313 314 315 313 314 319 317 317 326 328 328 328 329 328 328 328 329 327 325 325 325 342 352
306 305 304 305 306 308 309 308 308 308 307 308 308 308 308 306 312 311 313 316 315 314 309 314 314 313 313 312 313 319 320 319 322 327 328 325 324 324 327 328 327 326 322 323 324 321 321
304 305 305 306 308 310 310 308 308 308 308 309 309 309 307 310 311 312 316 315 315 312 316 315 312 313 312 311 314 314 316 317 319 320 318 320 325 325 326 324 325 326 325 322 323 321 320
305 305 305 307 309 310 309 308 308 308 308 309 309 309 306 311 311 315 315 315 314 311 317 313 312 312 312 312 313 315 316 315 315 315 315 314 317 320 322 324 323 323 322 319 317 318 320
305 305 306 308 310 309 308 308 308 308 309 309 310 309 305 307 313 314 315 311 313 314 315 313 312 311 310 311 312 313 315 314 312 312 314 315 316 315 316 318 320 321 317 319 321 320 320
305 305 308 308 308 308 309 309 308 309 309 310 310 308 307 311 314 313 313 313 319 318 316 315 315 312 310 312 313 314 313 311 315 312 311 315 315 315 315 315 319 323 317 319 323 322 321
305 306 308 308 309 309 309 309 308 308 311 312 315 311 315 317 316 314 310 317 316 315 315 315 314 313 314 313 313 313 313 313 315 312 314 313 316 315 317 315 315 322 323 318 319 318 320
305 306 308 309 309 309 309 309 308 309 312 313 316 315 316 317 316 314 312 315 315 315 315 314 315 315 315 315 315 312 313 314 315 313 311 314 314 313 316 314 314 312 314 319 315 323 324
305 307 309 309 309 309 309 309 308 310 312 314 317 315 317 316 317 311 312 315 314 314 314 314 314 314 314 314 314 313 313 314 314 313 311 310 311 313 313 312 314 312 312 311 315 318 322
305 308 309 310 309 309 309 309 309 311 313 313 312 312 315 316 311 310 310 313 313 312 312 313 313 312 313 313 313 313 314 314 314 313 314 311 308 311 313 312 314 313 312 309 312 314 318
306 308 309 310 309 309 309 309 311 312 313 310 312 314 315 316 312 311 312 313 313 312 313 313 313 312 311 311 313 313 313 314 314 313 313 312 309 311 312 311 310 312 311 311 309 308 314
307 308 309 309 309 309 309 311 313 314 315 312 312 312 309 307 307 312 314 313 314 313 313 313 312 311 311 312 309 312 313 314 316 316 318 311 307 309 311 312 310 311 311 311 310 311 311
307 308 309 309 309 309 308 312 314 316 317 315 310 310 309 312 311 310 310 312 314 314 312 311 313 313 311 312 311 312 311 311 312 315 312 308 308 311 310 313 313 314 314 312 311 312 314
307 308 309 309 309 309 308 312 314 316 317 316 312 313 309 309 309 310 310 311 313 313 312 312 312 313 310 311 312 312 310 309 310 308 311 309 312 313 314 314 313 312 312 313 313 312 313
307 308 311 309 309 309 308 312 313 315 317 316 316 316 308 310 310 310 311 313 313 313 312 312 312 311 312 312 310 309 308 307 307 309 308 309 310 311 313 314 312 311 310 312 312 313 321
307 308 311 310 309 309 308 311 313 315 316 316 317 316 310 312 312 312 314 314 314 313 314 312 310 311 311 309 308 308 308 308 308 308 304 308 307 309 310 312 315 310 309 312 315 321 321
307 308 310 310 309 309 308 310 313 315 317 316 316 318 313 312 313 314 314 314 312 312 313 312 312 310 309 308 309 310 311 311 312 310 309 305 306 309 311 311 311 312 310 310 318 320 317
306 309 310 310 310 309 309 310 312 314 315 316 317 316 316 312 312 314 314 313 311 312 312 313 311 310 307 307 309 313 313 314 313 312 307 308 307 311 311 310 314 311 316 315 315 319 316
306 309 310 310 309 309 309 309 309 313 315 316 317 316 317 314 311 311 312 313 311 311 311 311 312 309 307 308 307 312 307 311 308 313 312 309 311 310 310 313 314 313 313 314 316 314 313
305 308 310 310 310 309 309 308 308 309 315 317 318 317 315 312 313 315 315 312 311 310 310 310 308 307 306 307 306 302 306 311 310 311 310 311 312 313 310 310 314 310 313 315 312 309 309
305 308 310 310 310 309 308 309 309 308 310 309 317 317 317 315 314 317 318 315 313 312 309 308 307 308 306 305 305 300 303 304 303 310 307 312 308 305 311 317 309 309 310 308 306 305 306
Wind_Speed
22 21 21 22 22 22 23 24 25 25 26 26 26 27 27 28 27 26 26 23 18 19 13 9 7 3 2 1 8 6 7 16 18 17 14 6 5 4 4 6 13 11 16 13 12 10 13
24 22 21 21 22 23 23 24 24 25 27 27 28 28 29 28 28 27 26 24 18 16 11 11 6 1 2 2 4 11 12 17 17 18 13 10 7 9 5 9 8 6 9 11 9 16 12
24 22 21 21 22 23 24 24 25 26 27 28 28 29 29 31 29 28 28 24 17 13 9 8 2 4 2 10 4 14 13 13 20 22 7 22 12 3 5 8 11 10 6 9 13 15 7
24 23 22 22 22 23 23 25 25 26 28 29 30 30 30 31 30 29 28 22 16 13 7 3 2 2 6 7 7 14 15 12 16 17 21 13 14 6 5 7 7 5 3 4 6 13 12
22 24 22 21 21 22 23 24 25 27 28 29 29 30 31 31 31 30 27 20 17 10 4 1 2 3 8 8 5 14 18 11 19 15 17 5 4 5 3 3 5 7 2 6 9 17 11
21 23 21 20 21 23 24 26 28 29 30 30 29 30 31 31 30 29 24 20 7 3 4 1 5 3 7 4 7 8 11 10 6 6 1 2 2 1 4 4 3 2 3 5 5 6 9
21 20 20 20 22 24 25 27 29 30 30 29 29 30 30 31 27 22 23 4 4 3 3 7 5 4 7 2 5 3 6 2 5 6 4 4 4 4 8 6 6 4 3 9 17 13 4
20 19 20 21 23 25 27 28 30 30 29 30 30 31 31 30 22 14 9 2 4 3 6 10 13 10 21 13 2 5 9 3 5 4 3 4 5 9 6 6 7 7 7 11 12 4 5
17 18 21 22 24 26 28 29 30 31 31 31 32 34 32 26 14 5 9 10 12 15 1 8 6 5 6 4 2 5 8 5 3 5 7 6 9 9 8 7 6 6 6 10 11 2 7
20 21 22 24 26 27 27 28 30 32 33 32 32 35 30 24 4 15 8 22 16 3 4 6 4 2 3 5 2 8 6 3 1 9 6 5 14 9 8 10 5 6 7 11 8 3 3
22 24 25 27 26 26 27 28 31 34 35 33 33 32 22 12 10 6 16 24 21 4 3 4 1 2 1 6 4 4 3 4 1 2 4 7 5 7 8 11 8 12 12 8 2 3 3
24 25 27 28 26 27 27 31 32 35 37 35 33 24 17 5 10 10 21 24 6 5 3 4 3 3 4 1 1 4 2 3 1 1 2 6 4 4 7 6 6 12 6 7 5 3 2
26 28 28 29 28 29 31 31 33 36 38 35 26 13 8 6 4 12 20 5 4 3 7 3 4 4 4 5 3 5 3 1 2 3 2 5 4 3 3 3 6 3 7 3 4 3 5
28 29 29 28 28 30 32 33 34 36 37 31 17 8 6 11 8 14 12 5 8 9 5 5 5 3 5 4 2 3 3 4 5 2 4 4 4 8 8 1 4 3 8 5 6 3 3
28 28 28 28 28 30 31 33 35 37 36 22 16 4 7 5 8 6 5 6 2 4 5 9 8 7 10 7 5 4 8 7 5 7 6 3 3 5 4 6 5 4 2 6 5 1 4
30 31 28 28 29 30 32 32 34 36 38 16 11 7 6 5 2 3 5 6 4 5 7 6 7 7 8 9 7 6 6 9 4 8 3 3 3 3 7 7 11 8 5 4 3 2 3
31 31 29 29 29 30 31 32 33 36 38 19 5 4 12 1 3 5 3 3 6 11 13 7 6 6 5 5 6 7 6 9 8 6 11 5 4 7 4 6 3 7 8 6 1 4 4
31 30 29 30 29 30 30 31 30 35 39 15 5 4 28 9 5 1 3 3 6 9 11 7 7 7 5 6 7 5 6 4 4 3 4 5 3 4 3 6 3 4 6 5 4 7 1
30 29 28 29 28 29 28 27 29 33 33 8 2 3 22 12 4 5 5 12 10 8 9 6 10 8 7 7 5 5 6 9 6 5 3 4 4 4 11 7 8 7 10 5 3 3 2
31 29 28 27 27 27 25 25 27 31 25 4 2 4 5 5 1 5 4 9 5 11 11 7 7 8 8 9 8 6 8 12 13 8 12 7 4 5 4 4 4 7 12 8 5 2 5
30 28 26 25 25 25 23 23 27 28 20 4 3 1 3 3 5 8 8 4 8 6 7 11 7 10 5 7 6 6 8 7 6 13 6 5 2 4 3 6 8 10 13 12 6 4 2
27 27 26 23 23 22 21 21 26 28 14 7 3 3 5 2 4 10 7 5 6 4 4 4 5 6 10 5 2 3 5 5 2 7 7 5 1 4 5 7 8 9 11 12 11 6 5
26 26 25 21 21 20 19 19 23 28 18 9 8 6 4 6 3 5 3 4 4 2 7 5 6 4 6 3 3 5 4 4 6 0 3 1 3 2 2 4 5 7 5 4 11 6 3
24 24 23 19 18 17 15 15 18 23 23 9 6 2 4 3 3 3 4 3 3 4 2 4 6 3 3 5 5 3 3 5 5 8 5 2 4 3 3 4 2 7 6 6 3 12 8
22 23 22 17 16 15 12 11 13 17 15 18 16 4 3 2 4 5 8 5 5 2 1 5 1 3 3 5 4 5 5 6 5 4 6 3 4 2 3 4 6 9 7 6 6 6 7
20 19 19 15 13 12 10 8 11 13 15 9 18 13 3 4 3 3 3 2 3 2 3 1 4 6 6 3 3 3 2 2 4 9 5 5 4 4 3 3 5 2 8 12 2 3 7
18 17 17 13 11 10 9 5 8 8 11 10 10 19 3 2 4 3 2 2 3 2 2 1 2 4 5 3 3 2 1 1 1 3 4 4 4 2 4 4 6 8 13 8 3 2 7
17 16 15 11 10 10 8 5 6 6 9 9 5 12 8 1 5 1 1 3 2 3 3 3 4 5 4 4 2 2 2 1 2 1 0 1 2 2 3 2 6 10 3 3 6 3 4
16 14 13 10 8 9 7 5 6 6 6 9 3 9 14 2 5 11 14 8 8 8 5 2 6 2 4 3 1 2 2 1 3 2 1 4 4 3 4 2 2 5 2 5 5 6 5
Wind_Direction
358 355 354 353 353 352 349 349 350 349 347 346 346 343 341 342 340 338 336 335 333 336 330 347 341 334 75 66 251 202 158 184 184 186 190 169 171 168 225 215 247 246 264 268 259 150 121
357 353 351 351 351 350 349 348 347 346 345 345 345 342 338 336 338 335 332 330 329 334 321 324 317 291 156 262 237 179 164 177 189 187 191 177 201 207 256 240 239 276 288 284 276 142 148
353 352 348 348 349 348 348 347 346 345 343 342 342 340 336 335 335 331 328 326 323 324 317 335 5 131 268 239 200 184 171 186 187 193 165 206 221 287 354 323 245 256 281 306 130 145 137
351 349 346 346 348 347 346 347 346 345 342 341 340 336 333 333 332 328 324 324 317 310 293 320 106 151 249 262 249 226 207 197 196 200 206 207 219 273 202 263 325 353 35 340 149 168 160
348 347 345 347 348 347 346 345 343 342 340 340 337 334 332 333 330 327 322 323 311 300 241 226 173 185 268 326 230 219 203 215 192 204 214 217 210 219 305 265 7 15 283 303 316 179 153
348 345 347 349 348 347 347 345 343 341 340 339 336 334 332 332 329 328 321 326 313 114 134 216 266 307 272 218 194 190 212 165 161 175 163 164 136 264 349 82 211 266 305 324 257 309 134
348 347 353 352 349 347 346 343 342 341 340 339 338 337 334 329 329 331 329 350 27 47 198 197 193 254 287 166 157 206 211 115 151 99 168 194 105 210 254 189 189 246 279 280 285 287 248
352 353 355 353 350 347 344 342 341 342 343 343 342 340 335 330 331 329 323 329 221 239 305 238 245 244 261 269 335 242 219 115 126 169 187 354 219 229 236 216 239 261 256 276 287 299 103
359 357 357 353 349 346 343 342 342 343 344 343 343 343 338 334 341 36 314 276 314 315 40 291 212 207 234 152 209 226 135 171 181 166 181 179 238 230 237 250 236 253 221 257 253 70 43
7 0 356 352 346 344 342 344 345 344 344 343 342 343 341 341 34 337 303 346 342 17 53 282 191 220 164 141 330 164 155 137 150 198 213 203 245 224 230 248 196 266 226 252 275 80 270
3 358 353 350 345 343 341 347 346 344 343 342 340 342 339 341 317 313 335 343 337 56 92 206 108 167 156 125 161 355 55 54 224 284 83 257 241 217 221 231 203 240 253 233 277 83 101
2 357 353 348 346 343 343 349 349 346 344 341 334 341 335 321 316 335 337 332 332 51 116 169 134 164 91 66 25 196 84 73 176 263 239 232 239 192 213 242 227 234 247 25 48 81 57
358 356 354 350 345 345 348 351 353 349 344 339 336 335 308 281 259 325 336 9 49 61 318 4 166 145 147 206 177 173 151 192 121 78 348 334 309 273 343 356 345 108 64 1 349 356 222
358 355 352 350 350 350 351 354 354 352 348 337 347 336 302 263 285 303 340 54 51 351 348 321 5 135 173 164 176 125 86 29 20 117 68 75 349 10 0 138 249 118 149 156 192 209 264
357 355 352 350 352 353 355 357 357 354 354 343 352 324 295 317 297 306 57 50 46 343 322 337 345 42 10 347 115 103 85 29 37 11 108 65 273 322 23 347 356 292 86 185 118 75 81
356 353 353 353 354 355 358 359 0 356 357 344 341 328 278 22 109 98 59 60 78 9 356 29 45 8 43 357 39 24 54 352 42 18 87 357 356 6 317 32 23 87 293 5 18 112 172
355 354 353 354 354 358 -0 1 5 358 359 352 3 11 352 169 146 54 107 77 67 25 34 36 355 38 53 42 28 20 25 29 21 356 59 30 74 295 33 56 355 356 15 359 95 128 145
356 354 352 351 356 359 2 3 7 1 356 11 4 42 356 134 52 52 67 23 69 10 19 17 46 52 54 25 32 73 58 77 27 8 50 330 114 334 245 268 250 127 78 48 49 316 326
356 355 356 350 358 359 3 7 7 3 358 358 48 286 19 54 63 10 7 77 68 32 14 11 13 22 24 31 62 66 45 17 47 61 79 334 14 10 341 12 21 37 6 28 260 348 325
355 355 356 355 357 1 7 11 4 3 354 25 73 24 335 33 62 109 98 50 51 32 46 48 43 37 30 27 13 43 31 9 24 49 49 65 71 131 183 233 269 322 335 347 109 10 327
354 355 356 2 357 4 13 13 7 6 2 39 43 305 191 347 3 58 61 69 49 19 13 24 38 28 14 26 23 27 5 0 9 21 24 86 90 25 353 11 352 340 342 335 326 239 184
354 357 358 3 2 9 18 20 13 16 10 41 71 51 11 26 39 56 34 15 64 353 52 18 70 12 55 81 76 316 32 27 296 350 16 6 345 44 360 35 10 323 309 308 304 348 310
353 357 360 6 6 11 19 26 19 26 40 41 4 350 98 313 46 74 23 53 79 68 7 99 89 43 36 353 280 236 221 195 241 95 339 92 110 70 267 65 7 307 270 294 294 338 88
353 354 357 6 9 12 20 30 23 34 38 40 14 339 65 353 79 108 106 118 121 105 102 93 88 93 254 297 323 330 281 237 256 280 167 234 123 136 205 74 214 244 312 272 302 64 59
354 352 355 4 11 10 20 32 25 38 41 43 26 29 81 35 43 86 75 71 48 96 77 91 78 190 290 24 39 21 2 17 9 23 331 149 123 152 168 182 277 298 287 244 172 88 39
352 353 351 358 10 7 11 34 21 31 36 39 28 18 84 104 315 84 106 125 130 71 25 83 71 55 50 67 61 78 65 353 339 339 9 35 103 135 137 153 243 224 332 323 314 145 10
349 351 349 352 2 6 1 23 5 17 17 25 22 15 72 102 274 96 121 163 129 118 143 317 98 30 51 51 62 62 110 211 312 337 336 342 355 209 207 210 272 356 312 303 180 261 350
343 346 347 351 358 1 352 7 343 358 22 24 12 14 18 141 277 43 341 128 47 91 131 255 41 8 37 67 102 253 106 186 230 324 35 91 332 332 328 243 244 4 341 60 349 295 322
337 342 342 345 356 1 351 3 342 338 356 6 355 10 351 187 241 309 299 214 154 179 140 50 158 136 174 102 116 108 55 57 169 232 40 196 177 206 211 291 20 327 8 331 347 302 297